Home   Weather   Auckland   Past weeks
Flag for New Zealand

Past Weather in Auckland, New Zealand — Yesterday and Last 2 Weeks

Now
57 °F

Cool.


Feels Like: 57 °F
Forecast: 58 / 46 °F
Wind: 5 mph from Southwest

Location: Auckland Airport

Current Time: Jul 21, 2019 at 3:14:05 pm

Latest Report: Jul 21, 2019 at 2:30 pm


Visibility: N/A

Pressure: 29.74 "Hg

Humidity: 72%

Dew Point: 48 °F

Location of AucklandLocation

Past Weather in Auckland — Graph

°F

Auckland Temperature Yesterday

Maximum temperature yesterday: 59 °F (at 12:30 pm)
Minimum temperature yesterday: 50 °F (at 7:30 am)
Average temperature yesterday: 54 °F

High & Low Weather Summary for the Past Weeks

 TemperatureHumidityPressure
High64 °F (Jul 13, 1:30 pm)100% (Jul 6, 11:00 pm)30.30 "Hg (Jul 6, 11:00 pm)
Low39 °F (Jul 7, 5:00 am)55% (Jul 15, 2:30 pm)29.39 "Hg (Jul 16, 9:00 am)
Average54 °F87%29.82 "Hg
* Reported Jul 6 2:00 pm — Jul 21 2:00 pm, Auckland. Weather by CustomWeather, © 2019

Note: Actual official high and low records may vary slightly from our data, if they occured in-between our weather recording intervals... More about our weather records

Advertising

Auckland Weather History for the Previous 24 Hours

Scroll right to see more
 ConditionsComfort  
Time TempWeatherWind HumidityBarometerVisibility
2:00 pm
Sun, Jul 21
57 °FPassing clouds.3 mph72%29.74 "HgN/A
1:30 pm57 °FCool.3 mph72%29.74 "HgN/A
1:00 pm57 °FCool.2 mph67%29.74 "HgN/A
12:30 pm57 °FCool.1 mph72%29.74 "HgN/A
12:00 pm57 °FScattered clouds.2 mph77%29.77 "HgN/A
11:30 am55 °FCool.2 mph88%29.77 "HgN/A
11:00 am54 °FScattered clouds.2 mph94%29.77 "HgN/A
10:30 am52 °FPartly sunny.3 mph100%29.77 "HgN/A
10:00 am52 °FPartly sunny.1 mph94%29.74 "HgN/A
9:30 am52 °FBroken clouds.3 mph94%29.74 "HgN/A
9:00 am50 °FCool.2 mph94%29.74 "HgN/A
8:30 am48 °FScattered clouds.1 mph100%29.74 "HgN/A
8:00 am46 °FCool.3 mph100%29.71 "HgN/A
7:30 am46 °FCool.5 mph100%29.71 "HgN/A
7:00 am48 °FPassing clouds.3 mph94%29.71 "HgN/A
6:30 am50 °FMostly cloudy.6 mph94%29.68 "HgN/A
6:00 am50 °FDrizzle. Mostly cloudy.7 mph94%29.68 "HgN/A
5:30 am48 °FScattered showers. Passing clouds.6 mph94%29.68 "HgN/A
5:00 am46 °FScattered showers. Passing clouds.5 mph100%29.68 "HgN/A
4:30 am46 °FPassing clouds.5 mph100%29.68 "HgN/A
4:00 am46 °FScattered showers. Passing clouds.3 mph100%29.68 "HgN/A
3:30 am46 °FScattered showers. Passing clouds.3 mph100%29.68 "HgN/A
3:00 am46 °FScattered showers. Passing clouds.5 mph100%29.68 "HgN/A
2:30 am48 °FPartly cloudy.3 mph100%29.68 "Hg6 mi
2:00 am46 °FPassing clouds.6 mph100%29.68 "Hg4 mi
1:30 am46 °FPassing clouds.6 mph100%29.68 "HgN/A
1:00 am46 °FCool.6 mph100%29.68 "HgN/A
12:30 am48 °FCool.5 mph94%29.68 "HgN/A
12:00 am48 °FCool.5 mph100%29.68 "HgN/A
11:30 pm
Sat, Jul 20
50 °FLight rain. Passing clouds.7 mph100%29.68 "HgN/A
11:00 pm50 °FPartly cloudy.6 mph100%29.68 "HgN/A
10:30 pm52 °FLight rain. Mostly cloudy.6 mph94%29.68 "Hg5 mi
10:00 pm50 °FLight rain. Partly cloudy.2 mph100%29.71 "HgN/A
9:30 pm52 °FPassing clouds.3 mph88%29.68 "HgN/A
9:00 pm54 °FPartly cloudy.6 mph88%29.68 "HgN/A
8:30 pm54 °FLight rain. Partly cloudy.6 mph88%29.68 "HgN/A
8:00 pm54 °FPartly cloudy.6 mph88%29.68 "HgN/A
7:30 pm54 °FScattered showers. Partly cloudy.7 mph88%29.68 "HgN/A
7:00 pm54 °FLight rain. Partly cloudy.7 mph88%29.68 "HgN/A
6:30 pm54 °FScattered showers. Passing clouds.8 mph82%29.68 "HgN/A
6:00 pm54 °FLight rain. Partly cloudy.6 mph82%29.68 "HgN/A
5:30 pm55 °FScattered showers. Partly cloudy.8 mph82%29.65 "HgN/A
5:00 pm54 °FLight rain. Broken clouds.14 mph88%29.65 "HgN/A
4:30 pm57 °FScattered showers. Cloudy.10 mph77%29.65 "HgN/A
4:00 pm57 °FPassing clouds.12 mph77%29.65 "HgN/A
3:30 pm57 °FScattered clouds.10 mph77%29.65 "HgN/A
3:00 pm57 °FScattered showers. Scattered clouds.16 mph72%29.65 "HgN/A
Weather by CustomWeather, © 2019

See weather overview